Independence, KS

7:15 AM CST on February 10, 2016 (GMT -0600)
Independence Municipal

Weather History for KIDP - January, 2013

Change the Weather History Date:

Friday, January 4, 2013

  Actual Average (KCFV) Record (KCFV)
Temperature  
Mean Temperature 32 °F -  
Max Temperature 48 °F 42 °F 66 °F (1997)
Min Temperature 15 °F 23 °F 8 °F (1999)
Degree Days  
Heating Degree Days 34    
Moisture  
Dew Point 22 °F    
Average Humidity 70    
Maximum Humidity 100    
Minimum Humidity 34    
Precipitation  
Precipitation 0.00 in - - ()
Sea Level Pressure  
Sea Level Pressure 30.37 in    
Wind  
Wind Speed 7 mph (SSW)    
Max Wind Speed 18 mph    
Max Gust Speed 21 mph    
Visibility 10 miles    
Events      
Averages and records for this station are not official NWS values.
T = Trace of Precipitation, MM = Missing Value Source: NWS Daily Summary

Daily Weather History Graph

Daily Weather History Graph

Search for Another Location

Airport or City:

Trip Planner

Search our weather history database for the weather conditions in past years. The results will help you decide how hot, cold, wet, or windy it might be!

Date:

Astronomy

Jan. 04, 2013 Rise Set
Actual Time 7:37 AM CST 5:19 PM CST
Civil Twilight 7:08 AM CST 5:48 PM CST
Nautical Twilight 6:35 AM CST 6:20 PM CST
Astronomical Twilight 6:04 AM CST 6:52 PM CST
Moon No Moon Rise 11:31 AM CST (1/4)
Length of Visible Light 10h 40m
Length of Day
9h 42m
Waning Gibbous, 55% of the Moon is Illuminated
Jan 4
Waning Gibbous
Jan 4
Last Quarter
Jan 11
New
Jan 18
First Quarter
Jan 26
Full

Hourly Weather History & Observations

Time (CST) Temp. Windchill Dew Point Humidity Pressure Visibility Wind Dir Wind Speed Gust Speed Precip Events Conditions
12:15 AM 19.4 °F 14.3 °F 19.4 °F 100% 30.45 in 10.0 mi SSW 3.5 mph - N/A   Clear
12:35 AM 19.4 °F 14.3 °F 19.4 °F 100% 30.45 in 10.0 mi SW 3.5 mph - N/A   Clear
12:55 AM 19.4 °F 14.3 °F 17.6 °F 93% 30.44 in 10.0 mi WSW 3.5 mph - N/A   Clear
1:35 AM 19.4 °F 14.3 °F 17.6 °F 93% 30.44 in 10.0 mi SW 3.5 mph - N/A   Clear
1:55 AM 19.4 °F 14.3 °F 17.6 °F 93% 30.44 in 10.0 mi South 3.5 mph - N/A   Clear
2:15 AM 19.4 °F 12.8 °F 17.6 °F 93% 30.45 in 10.0 mi SSW 4.6 mph - N/A   Clear
2:35 AM 19.4 °F 12.8 °F 17.6 °F 93% 30.45 in 10.0 mi SW 4.6 mph - N/A   Clear
2:55 AM 17.6 °F 10.7 °F 15.8 °F 93% 30.45 in 10.0 mi SSW 4.6 mph - N/A   Clear
3:15 AM 17.6 °F - 17.6 °F 100% 30.44 in 10.0 mi Calm Calm - N/A   Clear
5:55 AM 15.8 °F 7.2 °F 14.0 °F 93% 30.44 in 10.0 mi SSW 5.8 mph - N/A   Clear
6:15 AM 15.8 °F 6.1 °F 14.0 °F 93% 30.44 in 10.0 mi SSW 6.9 mph - N/A   Clear
6:35 AM 17.6 °F 10.7 °F 15.8 °F 93% 30.44 in 10.0 mi SSW 4.6 mph - N/A   Clear
7:15 AM 19.4 °F 11.5 °F 17.6 °F 93% 30.43 in 10.0 mi South 5.8 mph - N/A   Clear
7:35 AM 19.4 °F 14.3 °F 17.6 °F 93% 30.43 in 10.0 mi South 3.5 mph - N/A   Clear
7:55 AM 21.2 °F 16.4 °F 19.4 °F 93% 30.43 in 10.0 mi SSE 3.5 mph - N/A   Clear
8:15 AM 21.2 °F - 19.4 °F 93% 30.44 in 10.0 mi Calm Calm - N/A   Clear
8:35 AM 19.4 °F - 17.6 °F 93% 30.44 in 10.0 mi Calm Calm - N/A   Clear
8:55 AM 23.0 °F 18.4 °F 21.2 °F 93% 30.44 in 10.0 mi South 3.5 mph - N/A   Clear
9:15 AM 26.6 °F 19.1 °F 23.0 °F 86% 30.44 in 10.0 mi SSW 6.9 mph - N/A   Clear
9:35 AM 30.2 °F 21.9 °F 26.6 °F 86% 30.44 in 10.0 mi SSW 9.2 mph - N/A   Clear
9:55 AM 32.0 °F 23.0 °F 26.6 °F 80% 30.44 in 10.0 mi SSW 11.5 mph 16.1 mph N/A   Clear
10:15 AM 32.0 °F 22.1 °F 26.6 °F 80% 30.44 in 10.0 mi SSW 13.8 mph - N/A   Clear
10:35 AM 33.8 °F 25.3 °F 26.6 °F 75% 30.43 in 10.0 mi South 11.5 mph - N/A   Clear
10:55 AM 35.6 °F 27.5 °F 26.6 °F 70% 30.42 in 10.0 mi South 11.5 mph - N/A   Clear
11:15 AM 37.4 °F 30.3 °F 26.6 °F 65% 30.41 in 10.0 mi SSW 10.4 mph - N/A   Clear
11:35 AM 41.0 °F 32.2 °F 26.6 °F 57% 30.41 in 10.0 mi SW 18.4 mph - N/A   Clear
11:55 AM 41.0 °F 33.1 °F 26.6 °F 57% 30.40 in 10.0 mi SSW 15.0 mph - N/A   Clear
12:15 PM 41.0 °F 33.1 °F 26.6 °F 57% 30.38 in 10.0 mi SW 15.0 mph 20.7 mph N/A   Clear
12:35 PM 42.8 °F 35.4 °F 26.6 °F 53% 30.37 in 10.0 mi SW 15.0 mph 18.4 mph N/A   Clear
12:55 PM 42.8 °F 35.4 °F 26.6 °F 53% 30.36 in 10.0 mi SSW 15.0 mph 19.6 mph N/A   Clear
1:15 PM 44.6 °F 37.4 °F 26.6 °F 49% 30.35 in 10.0 mi SW 16.1 mph - N/A   Clear
1:35 PM 44.6 °F 37.8 °F 24.8 °F 46% 30.34 in 10.0 mi SW 15.0 mph 18.4 mph N/A   Clear
1:55 PM 44.6 °F 38.4 °F 24.8 °F 46% 30.33 in 10.0 mi SW 12.7 mph 19.6 mph N/A   Clear
2:15 PM 46.4 °F 41.5 °F 24.8 °F 43% 30.33 in 10.0 mi SW 10.4 mph 17.3 mph N/A   Clear
2:35 PM 44.6 °F 39.2 °F 23.0 °F 43% 30.32 in 10.0 mi SW 10.4 mph - N/A   Clear
2:55 PM 46.4 °F 42.4 °F 23.0 °F 40% 30.32 in 10.0 mi SSW 8.1 mph - N/A   Clear
3:15 PM 46.4 °F 42.4 °F 23.0 °F 40% 30.32 in 10.0 mi SSW 8.1 mph - N/A   Clear
3:35 PM 48.2 °F - 23.0 °F 37% 30.31 in 10.0 mi SW 10.4 mph - N/A   Clear
3:55 PM 48.2 °F - 21.2 °F 34% 30.31 in 10.0 mi SW 10.4 mph - N/A   Clear
4:15 PM 48.2 °F - 21.2 °F 34% 30.31 in 10.0 mi SW 12.7 mph - N/A   Clear
4:35 PM 46.4 °F 41.1 °F 21.2 °F 37% 30.31 in 10.0 mi SSW 11.5 mph 16.1 mph N/A   Clear
4:55 PM 44.6 °F 38.8 °F 21.2 °F 39% 30.31 in 10.0 mi SW 11.5 mph - N/A   Clear
5:15 PM 42.8 °F 37.5 °F 21.2 °F 42% 30.31 in 10.0 mi SW 9.2 mph - N/A   Clear
5:35 PM 39.2 °F 34.2 °F 21.2 °F 49% 30.31 in 10.0 mi SSW 6.9 mph - N/A   Clear
5:55 PM 37.4 °F 33.8 °F 21.2 °F 52% 30.31 in 10.0 mi SSW 4.6 mph - N/A   Clear
6:15 PM 37.4 °F 32.1 °F 21.2 °F 52% 30.31 in 10.0 mi South 6.9 mph - N/A   Clear
6:35 PM 35.6 °F 29.2 °F 23.0 °F 60% 30.32 in 10.0 mi South 8.1 mph - N/A   Clear
6:55 PM 33.8 °F 27.0 °F 23.0 °F 65% 30.32 in 10.0 mi South 8.1 mph - N/A   Clear
7:15 PM 33.8 °F 28.6 °F 23.0 °F 65% 30.32 in 10.0 mi South 5.8 mph - N/A   Clear
7:35 PM 33.8 °F 27.7 °F 23.0 °F 65% 30.31 in 10.0 mi South 6.9 mph - N/A   Clear
7:55 PM 33.8 °F 27.7 °F 23.0 °F 65% 30.32 in 10.0 mi South 6.9 mph - N/A   Clear
8:15 PM 33.8 °F 27.0 °F 23.0 °F 65% 30.31 in 10.0 mi South 8.1 mph - N/A   Clear
8:35 PM 32.0 °F 24.8 °F 24.8 °F 75% 30.31 in 10.0 mi South 8.1 mph - N/A   Clear
8:55 PM 32.0 °F 24.2 °F 24.8 °F 75% 30.31 in 10.0 mi South 9.2 mph - N/A   Clear
9:15 PM 32.0 °F 23.6 °F 24.8 °F 75% 30.31 in 10.0 mi South 10.4 mph - N/A   Clear
9:35 PM 32.0 °F 23.0 °F 24.8 °F 75% 30.31 in 10.0 mi South 11.5 mph - N/A   Clear
9:55 PM 32.0 °F 23.6 °F 24.8 °F 75% 30.31 in 10.0 mi South 10.4 mph - N/A   Clear
10:15 PM 32.0 °F 24.8 °F 24.8 °F 75% 30.31 in 10.0 mi South 8.1 mph - N/A   Clear
10:35 PM 32.0 °F 24.2 °F 23.0 °F 69% 30.31 in 10.0 mi South 9.2 mph - N/A   Clear
10:55 PM 30.2 °F 22.6 °F 23.0 °F 75% 30.30 in 10.0 mi South 8.1 mph - N/A   Clear
11:15 PM 30.2 °F 22.6 °F 23.0 °F 75% 30.31 in 10.0 mi South 8.1 mph - N/A   Clear
11:35 PM 32.0 °F 25.6 °F 24.8 °F 75% 30.30 in 10.0 mi South 6.9 mph - N/A   Scattered Clouds
11:55 PM 32.0 °F 24.8 °F 26.6 °F 80% 30.30 in 10.0 mi South 8.1 mph - N/A   Overcast